Flag for U.S.A. Weather past 2 weeks in Monticello, Kentucky, U.S.A.

Now
51 °F

Light rain. Overcast.


Feels Like: 50 °F
Forecast: 35 / 60 °F
Wind: 5 mph from Northeast

Location: London-Corbin Airport-Magee Field

Current Time: Mar 4, 2015 at 8:48:34 AM

Latest Report: Mar 4, 2015 at 7:53 AM


Visibility: 10 mi

Pressure: 29.92 "Hg

Humidity: 86%

Dew point: 47 °F

Location of MonticelloLocation

Historic Weather in Monticello — Graph

°F

Monticello temperature yesterday

Maximum temperature yesterday: 61 °F (at 3:53 PM)
Minimum temperature yesterday: 33 °F (at 12:53 AM)
Average temperature yesterday: 49 °F

Past Weeks' High & Low Weather Summary

 TemperatureHumidityPressure
High62 °F (Mar 4, 2:53 AM)90% (Feb 21, 11:53 PM)30.67 "Hg (Feb 21, 11:53 PM)
Low-16 °F (Feb 20, 6:53 AM)24% (Feb 20, 4:53 PM)29.79 "Hg (Feb 26, 2:02 AM)
Average28 °F61%30.22 "Hg
* Reported Feb 17 7:53 AM — Mar 4 7:53 AM, Monticello, Weather by CustomWeather, © 2015

Note: Actual official high and low records may vary slightly from our data, if they occured in-between our weather recording intervals... More about our weather records

Advertising

Monticello weather history for previous 24 hours

 ConditionsComfort  
Time TempWeatherWind HumidityBarometerVisibility
7:53 AM
Wed, Mar 4
51 °FLight rain. Overcast.5 mph86%29.92 "Hg10 mi
6:53 AM51 °FLight rain. Overcast.6 mph86%29.91 "Hg10 mi
5:53 AM52 °FRain. Low clouds.13 mph83%29.88 "Hg5 mi
4:53 AM53 °FLight rain. Low clouds.No wind86%29.84 "Hg10 mi
3:53 AM54 °FOvercast.No wind83%29.84 "Hg10 mi
2:53 AM62 °FOvercast.14 mph78%29.82 "Hg10 mi
1:53 AM61 °FRain. Overcast.12 mph81%29.84 "Hg5 mi
1:00 AM61 °FMostly cloudy.14 mph81%29.86 "Hg10 mi
11:53 PM
Tue, Mar 3
59 °FLight rain. Mostly cloudy.12 mph84%29.86 "Hg10 mi
11:01 PM58 °FLight rain. Mostly cloudy.12 mph84%29.89 "Hg5 mi
9:55 PM58 °FRain. Overcast.12 mph84%29.90 "Hg2 mi
8:53 PM58 °FLight rain. Overcast.8 mph81%29.91 "Hg8 mi
7:53 PM60 °FMostly cloudy.10 mph78%29.91 "Hg10 mi
6:53 PM60 °FMostly cloudy.14 mph75%29.92 "Hg10 mi
5:53 PM61 °FMostly cloudy.15 mph75%29.92 "Hg10 mi
4:53 PM61 °FOvercast.8 mph70%29.93 "Hg10 mi
3:53 PM61 °FOvercast.12 mph70%29.95 "Hg10 mi
2:53 PM59 °FOvercast.10 mph69%29.96 "Hg10 mi
1:53 PM57 °FOvercast.8 mph72%29.99 "Hg10 mi
12:53 PM57 °FOvercast.14 mph69%30.03 "Hg10 mi
11:53 AM55 °FOvercast.8 mph72%30.06 "Hg10 mi
10:53 AM48 °FOvercast.No wind71%30.07 "Hg10 mi
9:53 AM41 °FLow clouds.No wind70%30.11 "Hg10 mi
8:53 AM39 °FOvercast.No wind65%30.14 "Hg9 mi
Weather by CustomWeather, © 2015

See weather overviewHow to use our weather pages